Weather History for Gainesville, FL

Change the Weather History Date:

Thursday, January 17, 2013

  Actual Average Record
Temperature  
Mean Temperature 54 °F 54 °F  
Max Temperature 67 °F 66 °F 87 °F (1943)
Min Temperature 41 °F 42 °F 23 °F (1959)
Degree Days  
Heating Degree Days 11 11  
Month to date heating degree days 57 195  
Since 1 July heating degree days 449 652  
Cooling Degree Days 0 0  
Month to date cooling degree days 46 0  
Year to date cooling degree days 46 0  
Growing Degree Days 4 (Base 50)    
Moisture  
Dew Point 52 °F    
Average Humidity 78    
Maximum Humidity 100    
Minimum Humidity 55    
Precipitation  
Precipitation 0.01 in 0.10 in 1.19 in (1964)
Month to date precipitation 0.20 1.63  
Year to date precipitation 0.20 1.63  
Snow  
Snow 0.00 in 0.00 in 0.00 in ()
Month to date snowfall 0.0 0.0  
Since 1 July snowfall 0.0 0.0  
Snow Depth 0.00 in    
Sea Level Pressure  
Sea Level Pressure 30.02 in    
Wind  
Wind Speed 9 mph (WSW)    
Max Wind Speed 29 mph    
Max Gust Speed 38 mph    
Visibility 6 miles    
Events Fog , Rain    
T = Trace of Precipitation, MM = Missing Value Source: NWS Daily Summary

Daily Weather History Graph

Daily Weather History Graph

Search for Another Location

Airport:

Trip Planner

Search our weather history database for the weather conditions in past years. The results will help you decide how hot, cold, wet, or windy it might be!

Date:

Astronomy

Jan. 17, 2013 Rise Set
Actual Time 7:24 AM EST 5:54 PM EST
Civil Twilight 6:59 AM EST 6:19 PM EST
Nautical Twilight 6:29 AM EST 6:49 PM EST
Astronomical Twilight 6:01 AM EST 7:17 PM EST
Moon 11:03 AM EST (1/17) No Moon Set
Length of Visible Light 11h 20m
Length of Day
10h 29m
Waxing Crescent, 37% of the Moon is Illuminated
Jan 17
Waxing Crescent
Jan 18
First Quarter
Jan 26
Full
Feb 3
Last Quarter
Feb 10
New

Hourly Weather History & Observations

Time (EST) Temp. Windchill Dew Point Humidity Pressure Visibility Wind Dir Wind Speed Gust Speed Precip Events Conditions
12:53 AM 55.9 °F - 54.0 °F 93% 30.02 in 10.0 mi Calm Calm - N/A   Clear
1:53 AM 55.9 °F - 54.0 °F 93% 30.01 in 10.0 mi Calm Calm - N/A   Clear
2:53 AM 55.0 °F - 54.0 °F 96% 30.01 in 10.0 mi Calm Calm - N/A   Clear
3:11 AM 53.6 °F - 53.6 °F 100% 30.01 in 3.0 mi Calm Calm - N/A   Scattered Clouds
3:13 AM 55.4 °F - 53.6 °F 94% 30.01 in 2.0 mi Calm Calm - N/A   Mostly Cloudy
3:27 AM 55.4 °F - 53.6 °F 94% 30.01 in 10.0 mi Calm Calm - N/A   Mostly Cloudy
3:53 AM 55.0 °F - 54.0 °F 96% 30.00 in 1.2 mi Calm Calm - N/A   Partly Cloudy
3:55 AM 55.4 °F - 53.6 °F 94% 30.00 in 0.8 mi Calm Calm - N/A   Mist
4:06 AM 53.6 °F - 53.6 °F 100% 30.00 in 0.2 mi Calm Calm - N/A Fog Fog
4:20 AM 53.6 °F - 53.6 °F 100% 29.99 in 1.0 mi Calm Calm - N/A   Mist
4:31 AM 55.4 °F - 53.6 °F 94% 29.99 in 3.0 mi Calm Calm - N/A   Overcast
4:34 AM 55.4 °F - 53.6 °F 94% 29.99 in 1.8 mi Calm Calm - N/A   Overcast
4:40 AM 55.4 °F - 53.6 °F 94% 29.99 in 0.2 mi Calm Calm - N/A Fog Fog
4:53 AM 55.9 °F - 55.9 °F 100% 29.99 in 0.2 mi Calm Calm - N/A Fog Fog
5:53 AM 55.9 °F - 55.0 °F 97% 29.99 in 0.2 mi Calm Calm - N/A Fog Fog
6:31 AM 55.4 °F - 55.4 °F 100% 29.99 in 0.5 mi Calm Calm - N/A Fog Fog
6:40 AM 55.4 °F - 55.4 °F 100% 29.99 in 0.5 mi Calm Calm - N/A Fog Fog
6:53 AM 55.9 °F - 55.0 °F 97% 29.99 in 0.2 mi Calm Calm - N/A Fog Fog
7:09 AM 57.2 °F - 55.4 °F 94% 29.99 in 1.0 mi Calm Calm - N/A   Mist
7:18 AM 55.4 °F - 55.4 °F 100% 29.99 in 0.2 mi Calm Calm - N/A Fog Fog
7:37 AM 57.2 °F - 55.4 °F 94% 29.99 in 1.2 mi SSE 3.5 mph - N/A   Scattered Clouds
7:39 AM 57.2 °F - 55.4 °F 94% 29.99 in 3.0 mi Calm Calm - N/A   Scattered Clouds
7:53 AM 57.9 °F - 57.0 °F 97% 29.99 in 6.0 mi Calm Calm - N/A   Partly Cloudy
8:53 AM 63.0 °F - 61.0 °F 93% 30.01 in 10.0 mi SSW 4.6 mph - N/A   Mostly Cloudy
9:36 AM 66.2 °F - 62.6 °F 88% 30.01 in 10.0 mi SSW 8.1 mph - N/A   Overcast
9:44 AM 66.2 °F - 62.6 °F 88% 30.01 in 10.0 mi SSW 8.1 mph - N/A   Overcast
9:53 AM 66.0 °F - 62.1 °F 87% 30.01 in 10.0 mi South 8.1 mph - N/A   Overcast
10:01 AM 66.2 °F - 62.6 °F 88% 30.02 in 10.0 mi SSW 9.2 mph - N/A   Overcast
10:53 AM 64.0 °F - 61.0 °F 90% 30.01 in 8.0 mi WSW 11.5 mph 20.7 mph 0.00 in   Overcast
11:00 AM 64.4 °F - 60.8 °F 88% 30.01 in 10.0 mi West 15.0 mph 23.0 mph N/A   Overcast
11:06 AM 64.4 °F - 60.8 °F 88% 30.01 in 10.0 mi WSW 16.1 mph - N/A   Overcast
11:23 AM 64.4 °F - 60.8 °F 88% 30.01 in 10.0 mi West 12.7 mph 23.0 mph N/A   Overcast
11:53 AM 62.1 °F - 59.0 °F 90% 30.01 in 2.5 mi WSW 15.0 mph 27.6 mph 0.00 in Rain Light Rain
11:57 AM 62.6 °F - 59.0 °F 88% 30.01 in 2.5 mi WSW 11.5 mph 21.9 mph 0.00 in Rain Light Rain
12:30 PM 60.8 °F - 57.2 °F 88% 30.00 in 4.0 mi WSW 18.4 mph 25.3 mph 0.00 in Rain Light Rain
12:53 PM 59.0 °F - 55.9 °F 90% 30.00 in 5.0 mi WSW 15.0 mph 27.6 mph 0.01 in Rain Light Rain
1:14 PM 55.4 °F - 53.6 °F 94% 30.01 in 2.5 mi West 19.6 mph 38.0 mph 0.00 in Rain Light Rain
1:21 PM 55.4 °F - 53.6 °F 94% 30.01 in 5.0 mi West 18.4 mph 29.9 mph 0.00 in   Overcast
1:53 PM 55.9 °F - 53.1 °F 90% 30.00 in 9.0 mi West 17.3 mph 20.7 mph 0.00 in   Overcast
2:00 PM 55.4 °F - 53.6 °F 94% 29.99 in 10.0 mi WSW 13.8 mph 23.0 mph N/A   Overcast
2:09 PM 57.2 °F - 53.6 °F 88% 29.99 in 10.0 mi West 15.0 mph - N/A   Overcast
2:51 PM 57.2 °F - 48.2 °F 72% 29.99 in 10.0 mi West 20.7 mph 29.9 mph N/A   Overcast
2:53 PM 57.0 °F - 48.0 °F 72% 30.00 in 10.0 mi West 19.6 mph 29.9 mph N/A   Overcast
3:53 PM 57.0 °F - 45.0 °F 64% 30.01 in 10.0 mi West 16.1 mph 24.2 mph N/A   Overcast
4:53 PM 57.0 °F - 41.0 °F 55% 30.02 in 10.0 mi WSW 23.0 mph 31.1 mph N/A   Partly Cloudy
5:53 PM 54.0 °F - 43.0 °F 66% 30.03 in 10.0 mi WSW 13.8 mph 21.9 mph N/A   Partly Cloudy
6:53 PM 52.0 °F - 43.0 °F 71% 30.05 in 10.0 mi WSW 11.5 mph 20.7 mph N/A   Clear
7:38 PM 51.8 °F - 42.8 °F 71% 30.07 in 10.0 mi WSW 11.5 mph 23.0 mph N/A   Mostly Cloudy
7:53 PM 51.1 °F - 42.1 °F 71% 30.07 in 10.0 mi WSW 12.7 mph 21.9 mph N/A   Mostly Cloudy
8:02 PM 51.8 °F - 42.8 °F 71% 30.08 in 10.0 mi West 13.8 mph 23.0 mph N/A   Scattered Clouds
8:53 PM 50.0 °F - 41.0 °F 71% 30.10 in 10.0 mi West 11.5 mph - N/A   Clear
9:31 PM 48.2 °F - 39.2 °F 71% 30.12 in 10.0 mi WNW 12.7 mph 20.7 mph N/A   Mostly Cloudy
9:53 PM 46.9 °F - 35.1 °F 63% 30.14 in 10.0 mi WNW 15.0 mph 23.0 mph N/A   Mostly Cloudy
10:53 PM 43.0 °F 38.2 °F 32.0 °F 65% 30.17 in 10.0 mi WNW 8.1 mph - N/A   Mostly Cloudy
11:40 PM 42.8 °F 35.4 °F 30.2 °F 61% 30.18 in 10.0 mi NW 15.0 mph 21.9 mph N/A   Scattered Clouds
11:53 PM 41.0 °F 35.8 °F 30.9 °F 67% 30.18 in 10.0 mi NW 8.1 mph - N/A   Clear